Simultaneous Nadir Overpasses (SNOs) Predictions

Prediction of SNOs between NOAA-20 and METOP-C Satellite Orbit:

Table of predicted SNOs for the next 14.0 days since TLE Epoch: 5/1/2020
Index Date (NOAA-20) Time (NOAA-20) Lat,Lon (NOAA-20) SZA (NOAA-20 ) Date (METOP-C) Time (METOP-C) Lat,Lon (METOP-C) SZA (METOP-C ) Distance(km) Time Diff (sec)
1 05/13/2020 01:23:05 73.42, 149.70 55.09 05/13/2020 01:24:11 73.41, 152.57 54.94 91.10 66
2 05/13/2020 02:13:48 -73.37, -42.86 124.99 05/13/2020 02:14:55 -73.32, -40.30 125.15 81.88 67
3 05/13/2020 03:04:29 73.13, 124.98 54.75 05/13/2020 03:05:39 73.09, 126.52 54.63 49.89 70
4 05/13/2020 03:55:12 -73.07, -67.59 125.33 05/13/2020 03:56:23 -73.00, -66.34 125.46 41.28 71
5 05/13/2020 04:45:53 72.83, 100.24 54.41 05/13/2020 04:47:06 72.81, 100.60 54.36 11.88 73
6 05/13/2020 05:36:36 -72.78, -92.33 125.66 05/13/2020 05:37:50 -72.73, -92.25 125.73 5.96 74
7 05/13/2020 06:27:21 72.74, 75.07 54.29 05/13/2020 06:28:29 72.74, 75.11 54.28 1.56 68
8 05/13/2020 07:18:05 -72.73,-117.61 125.73 05/13/2020 07:19:12 -72.71,-117.63 125.76 2.65 67
9 05/13/2020 08:08:51 72.74, 49.68 54.27 05/13/2020 08:09:51 72.72, 49.73 54.24 2.85 60
10 05/13/2020 08:59:35 -72.74,-143.00 125.74 05/13/2020 09:00:33 -72.74,-142.91 125.75 3.04 58
11 05/13/2020 09:50:20 72.70, 24.40 54.21 05/13/2020 09:51:13 72.70, 24.34 54.20 1.75 53
12 05/13/2020 10:41:04 -72.69,-168.28 125.81 05/13/2020 10:41:55 -72.72,-168.29 125.79 2.86 51
13 05/13/2020 11:31:50 72.70, -0.99 54.20 05/13/2020 11:32:35 72.68, -1.04 54.17 3.05 45
14 05/13/2020 12:22:34 -72.70, 166.33 125.82 05/13/2020 12:23:17 -72.70, 166.33 125.83 0.10 43
15 05/13/2020 13:13:20 72.71, -26.38 54.19 05/13/2020 13:13:56 72.71, -26.32 54.18 2.06 36
16 05/13/2020 14:04:04 -72.71, 140.94 125.83 05/13/2020 14:04:39 -72.68, 140.95 125.86 2.97 35
17 05/13/2020 14:54:49 72.66, -51.66 54.12 05/13/2020 14:55:18 72.69, -51.70 54.14 3.05 29
18 05/13/2020 15:45:33 -72.66, 115.66 125.89 05/13/2020 15:46:01 -72.66, 115.57 125.90 3.20 28
19 05/13/2020 16:36:18 72.67, -77.05 54.11 05/13/2020 16:36:39 72.67, -77.08 54.11 1.10 21
20 05/13/2020 17:27:02 -72.67, 90.28 125.90 05/13/2020 17:27:21 -72.69, 90.29 125.89 2.52 19
21 05/13/2020 18:17:48 72.68,-102.43 54.10 05/13/2020 18:18:01 72.65,-102.46 54.07 3.27 13
22 05/13/2020 19:08:32 -72.67, 64.89 125.91 05/13/2020 19:08:43 -72.67, 64.91 125.92 0.73 11
23 05/13/2020 19:59:18 72.68,-127.82 54.09 05/13/2020 19:59:22 72.68,-127.74 54.08 2.72 4
24 05/13/2020 20:50:02 -72.68, 39.50 125.92 05/13/2020 20:50:05 -72.65, 39.52 125.96 3.43 3
25 05/13/2020 21:40:47 72.64,-153.10 54.03 05/13/2020 21:40:44 72.66,-153.12 54.05 2.34 3
26 05/13/2020 22:31:31 -72.63, 14.22 125.99 05/13/2020 22:31:27 -72.63, 14.14 125.99 2.58 4
27 05/13/2020 23:22:17 72.64,-178.49 54.02 05/13/2020 23:22:06 72.64,-178.50 54.01 0.83 11
28 05/14/2020 00:13:01 -72.64, -11.17 126.00 05/14/2020 00:12:48 -72.66, -11.13 125.98 2.38 13
29 05/14/2020 01:03:47 72.65, 156.12 54.00 05/14/2020 01:03:28 72.62, 156.12 53.98 3.67 19
30 05/14/2020 01:54:31 -72.65, -36.55 126.01 05/14/2020 01:54:10 -72.64, -36.52 126.02 1.52 21
31 05/14/2020 02:45:17 72.65, 130.74 53.99 05/14/2020 02:44:49 72.65, 130.84 53.99 3.46 28
32 05/14/2020 03:36:00 -72.60, -61.84 126.08 05/14/2020 03:35:32 -72.62, -61.90 126.05 2.75 28
33 05/14/2020 04:26:46 72.61, 105.45 53.93 05/14/2020 04:26:11 72.63, 105.46 53.95 1.75 35
34 05/14/2020 05:17:30 -72.61, -87.22 126.09 05/14/2020 05:16:54 -72.60, -87.28 126.09 2.06 36
35 05/14/2020 06:08:16 72.62, 80.07 53.92 05/14/2020 06:07:33 72.60, 80.07 53.92 1.24 43
36 05/14/2020 06:59:00 -72.61,-112.61 126.10 05/14/2020 06:58:15 -72.63,-112.56 126.08 2.49 45
37 05/14/2020 07:49:45 72.57, 54.78 53.85 05/14/2020 07:48:55 72.58, 54.69 53.88 3.40 50
38 05/14/2020 08:40:30 -72.62,-138.00 126.11 05/14/2020 08:39:37 -72.61,-137.94 126.11 2.32 53
39 05/14/2020 09:31:15 72.58, 29.40 53.84 05/14/2020 09:30:17 72.56, 29.31 53.84 3.26 58
40 05/14/2020 10:21:59 -72.57,-163.28 126.17 05/14/2020 10:20:59 -72.59,-163.32 126.15 1.98 60
41 05/14/2020 11:12:45 72.58, 4.01 53.83 05/14/2020 11:11:38 72.59, 4.03 53.86 1.41 67
42 05/14/2020 12:03:29 -72.58, 171.33 126.18 05/14/2020 12:02:21 -72.57, 171.30 126.18 1.77 68
43 05/14/2020 12:54:15 72.59, -21.38 53.82 05/14/2020 12:53:00 72.57, -21.35 53.82 1.96 75
44 05/14/2020 13:44:58 -72.53, 146.05 126.25 05/14/2020 13:43:43 -72.55, 145.92 126.22 4.53 75
45 05/14/2020 14:35:39 72.29, -46.15 53.48 05/14/2020 14:34:27 72.30, -47.24 53.55 36.79 72
46 05/14/2020 15:26:22 -72.24, 121.27 126.59 05/14/2020 15:25:11 -72.22, 119.94 126.53 45.27 71
47 05/14/2020 16:17:03 71.99, -70.95 53.14 05/14/2020 16:15:55 71.97, -73.21 53.24 77.93 68
48 05/14/2020 17:07:46 -71.93, 96.47 126.92 05/14/2020 17:06:38 -71.94, 94.07 126.79 82.74 68




NCC Satellite Simultaneous Nadir Overpasses (SNOs) Prediction Service
